Location: Unspecified
(0.0000°N, 0.0000°E)
Time: 02:43:42
(UTC+00:00)

Vanguard 1 - Pass Details

Date: 14 December 2018
Orbit: 650 x 3833 km, 34.3° (Epoch: 16 January)

Event Time Altitude Azimuth Distance (km) Brightness Sun altitude
Rises 23:42:06 0° 219° (SW) 6,369 14.5 -66.5°
Reaches altitude 10° 23:48:47 10° 203° (SSW) 4,647 13.7 -66.7°
Enters shadow 23:51:51 15° 191° (S) 3,918 13.3 -66.7°
